DW9924 Weather Reports


Display with metric or nautical units.
time (UTC)temp
F
wind
direction
speed
MPH
gust
MPH
rain 1hr
in
rain 24hr
in
rain mn
in
humidity
%
barometer
mb
20260902211406 76 15 1.0 2.0 0.00 0.00 0.00 84 1018.6
20260902210907 76 75 0.0 2.0 0.00 0.00 0.00 84 1018.7
20260902210406 76 16 1.0 2.0 0.00 0.00 0.00 84 1018.6
20260902204907 76 23 1.0 2.0 0.00 0.00 0.00 83 1018.5
20260902204406 76 5 0.0 1.0 0.00 0.00 0.00 83 1018.6
20260902203405 76 27 0.0 2.0 0.00 0.00 0.00 83 1018.6
20260902201906 77 36 0.0 2.0 0.00 0.00 0.00 83 1018.6
20260902200905 77 36 0.0 0.0 0.00 0.00 0.00 83 1018.6
20260902194906 77 36 0.0 0.0 0.00 0.00 0.00 83 1018.5
20260902193905 77 36 0.0 0.0 0.00 0.00 0.00 83 1018.4
20260902193406 77 36 0.0 2.0 0.00 0.00 0.00 82 1018.4
20260902191906 77 44 0.0 1.0 0.00 0.00 0.00 82 1018.4
20260902191406 77 44 0.0 0.0 0.00 0.00 0.00 82 1018.3
20260902190906 77 44 0.0 0.0 0.00 0.00 0.00 81 1018.3
20260902184905 78 218 0.0 1.0 0.00 0.00 0.00 81 1018.2
20260902184405 78 218 0.0 0.0 0.00 0.00 0.00 81 1018.2
20260902183906 78 218 0.0 1.0 0.00 0.00 0.00 81 1018.1
20260902183405 78 218 0.0 0.0 0.00 0.00 0.00 81 1018.1
20260902181906 78 218 0.0 1.0 0.00 0.00 0.00 80 1018.0
20260902181405 78 218 0.0 0.0 0.00 0.00 0.00 80 1018.0
20260902180905 78 218 0.0 0.0 0.00 0.00 0.00 80 1017.8
20260902180405 78 218 0.0 0.0 0.00 0.00 0.00 80 1017.8
20260902174905 78 218 0.0 0.0 0.00 0.00 0.00 79 1017.8
20260902174406 78 218 0.0 1.0 0.00 0.00 0.00 79 1017.9
20260902173406 79 218 0.0 2.0 0.00 0.00 0.00 79 1017.8
20260902171906 79 218 0.0 1.0 0.00 0.00 0.00 78 1017.8
20260902171406 79 218 0.0 1.0 0.00 0.00 0.00 78 1017.8
20260902170905 79 218 0.0 1.0 0.00 0.00 0.00 77 1017.9
20260902170408 79 218 1.0 2.0 0.00 0.00 0.00 77 1017.9
20260902164905 80 192 1.0 2.0 0.00 0.00 0.00 76 1017.8
20260902164406 80 218 1.0 3.0 0.00 0.00 0.00 76 1017.8
20260902163905 80 163 1.0 2.0 0.00 0.00 0.00 76 1017.7
20260902163405 80 259 1.0 3.0 0.00 0.00 0.00 76 1017.8
20260902161905 81 227 2.0 3.0 0.00 0.00 0.00 75 1017.8
20260902161405 81 233 1.0 3.0 0.00 0.00 0.00 75 1017.8
20260902160906 81 239 1.0 3.0 0.00 0.00 0.00 74 1017.9
20260902160405 82 238 1.0 3.0 0.00 0.00 0.00 74 1017.8
20260902154905 82 226 1.0 5.0 0.00 0.00 0.00 74 1018.0
20260902154405 82 233 2.0 3.0 0.00 0.00 0.00 74 1018.0
20260902153905 82 210 1.0 3.0 0.00 0.00 0.00 74 1017.9
20260902153405 82 237 1.0 3.0 0.00 0.00 0.00 73 1018.0
20260902151405 82 251 1.0 3.0 0.00 0.00 0.00 73 1018.2
20260902150405 83 239 2.0 3.0 0.00 0.00 0.00 72 1018.2
20260902144905 83 202 2.0 3.0 0.00 0.00 0.00 72 1018.4
20260902143405 83 218 2.0 5.0 0.00 0.00 0.00 72 1018.2
20260902141405 83 247 1.0 3.0 0.00 0.00 0.00 73 1018.3
20260902140905 83 201 2.0 5.0 0.00 0.00 0.00 73 1018.4
20260902134904 83 254 2.0 3.0 0.00 0.00 0.00 72 1018.6
20260902134404 83 206 1.0 3.0 0.00 0.00 0.00 74 1018.6
20260902130905 84 241 2.0 3.0 0.00 0.00 0.00 71 1018.8
20260902130405 84 245 2.0 5.0 0.00 0.00 0.00 72 1018.9
20260902124905 84 142 2.0 6.0 0.00 0.00 0.00 71 1018.9
20260902124405 84 145 1.0 5.0 0.00 0.00 0.00 73 1019.0
20260902123905 83 225 2.0 5.0 0.00 0.00 0.00 73 1019.0
20260902123404 83 232 2.0 6.0 0.00 0.00 0.00 72 1019.1
20260902121904 83 233 2.0 6.0 0.00 0.00 0.00 72 1019.2
20260902121405 83 235 3.0 7.0 0.00 0.00 0.00 71 1019.2
20260902120904 82 217 2.0 5.0 0.00 0.00 0.00 72 1019.2
20260902120404 83 209 2.0 6.0 0.00 0.00 0.00 72 1019.2
20260902114906 82 243 3.0 6.0 0.00 0.00 0.00 74 1019.2
20260902114406 82 237 3.0 3.0 0.00 0.00 0.00 71 1019.3
20260902113904 82 232 3.0 6.0 0.00 0.00 0.00 73 1019.3
20260902113405 83 240 3.0 5.0 0.00 0.00 0.00 72 1019.3
20260902111905 81 226 2.0 3.0 0.00 0.00 0.00 74 1019.5
20260902111405 81 220 1.0 3.0 0.00 0.00 0.00 75 1019.5
20260902110904 81 226 1.0 2.0 0.00 0.00 0.00 75 1019.4
20260902110404 81 187 1.0 3.0 0.00 0.00 0.00 75 1019.5
20260902104905 83 164 1.0 3.0 0.00 0.00 0.00 73 1019.6
20260902104404 82 187 2.0 5.0 0.00 0.00 0.00 74 1019.6
20260902103904 83 155 1.0 5.0 0.00 0.00 0.00 72 1019.6
20260902103406 83 212 1.0 5.0 0.00 0.00 0.00 74 1019.6
20260902101904 81 244 1.0 3.0 0.00 0.00 0.00 74 1019.7
20260902101405 82 233 2.0 3.0 0.00 0.00 0.00 72 1019.7
20260902100906 83 216 2.0 3.0 0.00 0.00 0.00 72 1019.7
20260902100407 83 167 1.0 7.0 0.00 0.00 0.00 71 1019.8
20260902094405 82 188 2.0 3.0 0.00 0.00 0.00 74 1019.7
20260902093904 82 194 1.0 3.0 0.00 0.00 0.00 75 1019.6
20260902091914 81 187 1.0 2.0 0.00 0.00 0.00 76 1019.5
20260902091407 81 177 0.0 2.0 0.00 0.00 0.00 75 1019.6
20260902090907 80 178 1.0 3.0 0.00 0.00 0.00 76 1019.6
20260902084907 81 264 1.0 3.0 0.00 0.00 0.00 76 1019.5
20260902084407 80 173 1.0 2.0 0.00 0.00 0.00 76 1019.5
20260902083907 80 147 1.0 2.0 0.00 0.00 0.00 77 1019.5
20260902083407 80 170 1.0 3.0 0.00 0.00 0.00 76 1019.5
20260902081909 80 250 2.0 3.0 0.00 0.00 0.00 77 1019.5
20260902081407 80 267 1.0 3.0 0.00 0.00 0.00 77 1019.3
20260902080906 80 237 1.0 3.0 0.00 0.00 0.00 77 1019.3
20260902080409 80 220 1.0 3.0 0.00 0.00 0.00 76 1019.2
20260902074907 81 254 1.0 2.0 0.00 0.00 0.00 75 1019.1
20260902074407 81 214 1.0 3.0 0.00 0.00 0.00 75 1019.1
20260902073907 81 204 0.0 2.0 0.00 0.00 0.00 76 1019.0
20260902073407 80 204 1.0 2.0 0.00 0.00 0.00 77 1019.0
20260902071907 79 222 1.0 3.0 0.00 0.00 0.00 80 1018.9
20260902071407 79 222 0.0 0.0 0.00 0.00 0.00 82 1018.8
20260902070906 78 222 0.0 1.0 0.00 0.00 0.00 83 1018.8
20260902070406 78 228 0.0 2.0 0.00 0.00 0.00 84 1018.8
20260902064907 76 33 0.0 1.0 0.00 0.00 0.00 86 1018.8
20260902064406 75 28 0.0 0.0 0.00 0.00 0.00 85 1018.8
20260902063907 75 28 0.0 0.0 0.00 0.00 0.00 86 1019.2
20260902063407 75 28 0.0 2.0 0.00 0.00 0.00 86 1018.9
20260902061906 74 28 1.0 2.0 0.00 0.00 0.00 86 1018.9
20260902060906 74 37 1.0 2.0 0.00 0.00 0.00 85 1018.8
20260902060406 74 34 1.0 2.0 0.00 0.00 0.00 85 1018.8
20260902054906 74 28 1.0 3.0 0.00 0.00 0.00 85 1018.7
20260902054407 74 23 1.0 2.0 0.00 0.00 0.00 84 1018.8
20260902053907 74 19 1.0 3.0 0.00 0.00 0.00 84 1018.8
20260902053406 73 19 2.0 3.0 0.00 0.00 0.00 85 1018.7
20260902051906 73 5 2.0 3.0 0.00 0.00 0.00 85 1018.5
20260902051407 73 11 1.0 3.0 0.00 0.00 0.00 85 1018.5
20260902050407 73 25 1.0 3.0 0.00 0.00 0.00 85 1018.4
20260902044406 73 20 2.0 2.0 0.00 0.00 0.00 84 1018.4
20260902043907 73 24 2.0 3.0 0.00 0.00 0.00 84 1018.4
20260902043407 73 15 1.0 2.0 0.00 0.00 0.00 84 1018.5
20260902041906 73 22 1.0 3.0 0.00 0.00 0.00 84 1018.3
20260902041407 73 24 1.0 3.0 0.00 0.00 0.00 84 1018.3
20260902040906 73 44 2.0 2.0 0.00 0.00 0.00 84 1018.4
20260902040406 73 27 2.0 3.0 0.00 0.00 0.00 84 1018.2
20260902034906 73 10 1.0 3.0 0.00 0.00 0.00 84 1018.3
20260902034406 74 12 2.0 3.0 0.00 0.00 0.00 83 1018.3
20260902033906 74 16 1.0 2.0 0.00 0.00 0.00 83 1018.3
20260902033406 74 29 2.0 3.0 0.00 0.00 0.00 83 1018.3
20260902031906 74 10 2.0 2.0 0.00 0.00 0.00 83 1018.4
20260902031406 74 37 1.0 2.0 0.00 0.00 0.00 83 1018.4
20260902030906 74 5 1.0 2.0 0.00 0.00 0.00 83 1018.3
20260902024907 74 28 2.0 3.0 0.00 0.00 0.00 82 1018.4
20260902024407 74 24 1.0 3.0 0.00 0.00 0.00 82 1018.4
20260902023907 74 12 1.0 3.0 0.00 0.00 0.00 83 1018.4
20260902023407 74 24 1.0 3.0 0.00 0.00 0.00 82 1018.3
20260902021406 74 43 1.0 3.0 0.00 0.00 0.00 82 1018.2
20260902020406 74 34 2.0 3.0 0.00 0.00 0.00 81 1018.3
20260902014906 74 32 1.0 3.0 0.00 0.00 0.00 81 1018.3
20260902013906 74 355 0.0 2.0 0.00 0.00 0.00 81 1018.4
20260902011906 74 2 2.0 3.0 0.00 0.00 0.00 80 1018.4
20260902011406 75 7 1.0 3.0 0.00 0.00 0.00 80 1018.4
20260902010906 75 19 1.0 2.0 0.00 0.00 0.00 80 1018.3
20260902010406 75 34 1.0 3.0 0.00 0.00 0.00 80 1018.3
20260902004906 75 29 2.0 3.0 0.00 0.00 0.00 80 1018.4
20260902004406 75 20 1.0 3.0 0.00 0.00 0.00 81 1018.3
20260902003906 75 45 1.0 3.0 0.00 0.00 0.00 81 1018.3
20260902003406 75 27 1.0 3.0 0.00 0.00 0.00 81 1018.4
20260902001906 75 16 3.0 3.0 0.00 0.00 0.00 82 1018.5
20260902000906 75 14 1.0 3.0 0.00 0.00 0.00 82 1018.5
20260901234907 75 0 1.0 3.0 0.00 0.00 0.00 83 1018.6
20260901234406 75 358 1.0 2.0 0.00 0.00 0.00 83 1018.6
20260901233905 75 9 1.0 3.0 0.00 0.00 0.00 83 1018.6
20260901233406 75 22 1.0 3.0 0.00 0.00 0.00 83 1018.6
20260901231906 75 38 2.0 3.0 0.00 0.00 0.00 83 1018.6
20260901231406 75 17 1.0 3.0 0.00 0.00 0.00 83 1018.6
20260901230906 75 26 2.0 3.0 0.00 0.00 0.00 83 1018.6
20260901230406 75 15 1.0 3.0 0.00 0.00 0.00 83 1018.6
20260901224905 75 42 1.0 2.0 0.00 0.00 0.00 84 1018.7
20260901224406 75 358 1.0 2.0 0.00 0.00 0.00 84 1018.7
20260901223907 75 22 1.0 2.0 0.00 0.00 0.00 84 1018.8
20260901221905 76 36 2.0 3.0 0.00 0.00 0.00 83 1018.7
20260901221406 76 30 1.0 2.0 0.00 0.00 0.00 83 1018.6
20260901220905 76 39 1.0 2.0 0.00 0.00 0.00 83 1018.6
20260901220406 76 40 1.0 2.0 0.00 0.00 0.00 83 1018.5
20260901214905 76 36 1.0 2.0 0.00 0.00 0.00 82 1018.4
20260901214405 76 101 0.0 2.0 0.00 0.00 0.00 82 1018.4
20260901213905 76 71 0.0 2.0 0.00 0.00 0.00 82 1018.5
20260901213406 76 117 0.0 3.0 0.00 0.00 0.00 82 1018.5
20260901211921 76 34 1.0 2.0 0.00 0.00 0.00 82 1018.5